Terug naar catalogus

STARLINK-5364

ActiefCommunicatieVLEO
NORAD 55491·PAYLOAD·🇺🇸 United States

Gelanceerd Feb 2, 2023 vanaf Cape Canaveral Space Force Station

Loading…

Volgende Passages (komende 24 uur)

TLE

VersSource: CelesTrak SupGP

Epoch: Sep 15, 2026, 01:50 UTC

1 55491C 23015AU  26258.07687500  .00020884  00000+0  75648-3 0  2583
2 55491  43.0020 331.8491 0001432 265.7213 303.6590 15.27565159    13

Volg STARLINK-5364 in realtime met AllMySat

Download on the App Store